TimeCST,TemperatureF,Dew PointF,Humidity,Sea Level PressureIn,VisibilityMPH,Wind Direction,Wind SpeedMPH,Gust SpeedMPH,PrecipitationIn,Events,Conditions,WindDirDegrees,DateUTC
12:53 AM,34.0,28.0,79,30.44,10.0,Calm,Calm,-,N/A,,Clear,0,2012-11-14 06:53:00
1:53 AM,34.0,26.1,73,30.44,10.0,Calm,Calm,-,N/A,,Clear,0,2012-11-14 07:53:00
2:53 AM,30.9,27.0,85,30.45,10.0,Calm,Calm,-,N/A,,Clear,0,2012-11-14 08:53:00
3:53 AM,30.9,27.0,85,30.43,10.0,Calm,Calm,-,N/A,,Clear,0,2012-11-14 09:53:00
4:53 AM,34.0,27.0,75,30.45,10.0,Calm,Calm,-,N/A,,Clear,0,2012-11-14 10:53:00
5:53 AM,34.0,27.0,75,30.44,10.0,Calm,Calm,-,N/A,,Clear,0,2012-11-14 11:53:00
6:53 AM,33.1,27.0,78,30.46,10.0,NE,3.5,-,N/A,,Clear,50,2012-11-14 12:53:00
7:53 AM,35.1,28.0,76,30.47,10.0,Calm,Calm,-,N/A,,Clear,0,2012-11-14 13:53:00
8:53 AM,39.0,27.0,62,30.47,10.0,NE,3.5,-,N/A,,Clear,50,2012-11-14 14:53:00
9:53 AM,44.1,26.1,49,30.47,10.0,Calm,Calm,-,N/A,,Clear,0,2012-11-14 15:53:00
10:53 AM,46.9,26.1,44,30.46,10.0,NNE,4.6,-,N/A,,Clear,30,2012-11-14 16:53:00
11:53 AM,50.0,25.0,38,30.43,10.0,North,4.6,-,N/A,,Clear,10,2012-11-14 17:53:00
12:53 PM,51.1,24.1,35,30.40,10.0,NE,3.5,-,N/A,,Clear,40,2012-11-14 18:53:00
1:53 PM,52.0,19.9,28,30.38,10.0,Calm,Calm,-,N/A,,Clear,0,2012-11-14 19:53:00
2:53 PM,51.1,18.0,27,30.36,10.0,Calm,Calm,-,N/A,,Clear,0,2012-11-14 20:53:00
3:53 PM,51.1,17.1,26,30.36,10.0,ESE,3.5,-,N/A,,Clear,110,2012-11-14 21:53:00
4:53 PM,46.9,19.9,34,30.35,10.0,Calm,Calm,-,N/A,,Clear,0,2012-11-14 22:53:00
5:53 PM,42.1,19.0,40,30.35,10.0,Calm,Calm,-,N/A,,Clear,0,2012-11-14 23:53:00
6:53 PM,37.9,23.0,55,30.36,10.0,Calm,Calm,-,N/A,,Clear,0,2012-11-15 00:53:00
7:53 PM,36.0,18.0,48,30.37,10.0,Calm,Calm,-,N/A,,Clear,0,2012-11-15 01:53:00
8:53 PM,33.1,21.9,64,30.36,10.0,Calm,Calm,-,N/A,,Clear,0,2012-11-15 02:53:00
9:53 PM,30.0,19.9,66,30.35,10.0,Calm,Calm,-,N/A,,Clear,0,2012-11-15 03:53:00
10:53 PM,28.0,21.0,75,30.35,10.0,Calm,Calm,-,N/A,,Clear,0,2012-11-15 04:53:00
11:53 PM,27.0,19.9,75,30.35,10.0,Calm,Calm,-,N/A,,Clear,0,2012-11-15 05:53:00